Regional Weather Roundup
Issued by NWS

Home | Current Version | Previous Version | Text Only | Print | Product List | Glossary On
Versions: 1 2 3 4 5 6 7 8 9 10 11 12 13 14 15 16 17 18 19 20 21 22 23 24 25 26 27 28 29 30 31 32 33 34 35 36 37 38 39 40 41 42 43 44 45 46 47 48 49 50
000
ASUS44 KMEG 071710
RWRTN
TENNESSEE HOURLY STATE WEATHER ROUNDUP
NATIONAL WEATHER SERVICE MEMPHIS TN
1200 PM CDT TUE JUL 07 2015

TNZ002-004-019-021-049-052-054-088>092-071800-
WEST TENNESSEE

CITY           SKY/WX    TMP DP  RH WIND       PRES   REMARKS
MEMPHIS INTL   MOSUNNY   87  74  64 SW12G23   30.06S HX  95
NWS MEMPHIS      N/A     86 N/A N/A MISG        N/A
JACKSON        PTSUNNY   87  72  60 SW17      30.06R HX  93
DYERSBURG        N/A    N/A N/A N/A MISG        N/A
PARIS          MOSUNNY   82  72  69 SW10      30.04S
LEXINGTON      MOSUNNY   86  73  66 SW14      30.06S HX  93
$$

TNZ008-025-027-028-033-062-065-066-071800-
NORTH MIDDLE TENNESSEE

CITY           SKY/WX    TMP DP  RH WIND       PRES   REMARKS
NASHVILLE      PTSUNNY   86  72  62 SW9G23    30.08S HX  92
CLARKSVILLE    PTSUNNY   84  73  69 SW12G21   30.03S HX  90
SMYRNA         PTSUNNY   87  74  65 SW12G18   30.08F HX  95
COOKEVILLE     MOSUNNY   88  77  70 SW13      30.11S HX 100
CROSSVILLE     MOSUNNY   82  68  62 SW8G17    30.18S
$$

TNZ061-075-076-078-094-096-097-071800-
SOUTH MIDDLE TENNESSEE

CITY           SKY/WX    TMP DP  RH WIND       PRES   REMARKS
FAYETTEVILLE   MOSUNNY   82  70  65 SW12      30.14F
TULLAHOMA      MOSUNNY   84  72  65 SW13      30.15S
WINCHESTER     MOSUNNY   86  72  62 SW9       30.15S HX  92
MCMINNVILLE    MOSUNNY   84  73  70 SW12      30.13S HX  91
COLUMBIA       MOSUNNY   88  75  66 SW14      30.08S HX  97
SHELBYVILLE    SUNNY     88  75  66 S16         N/A  HX  97
$$

TNZ017-018-042-046-047-071800-
NORTHEAST TENNESSEE

CITY           SKY/WX    TMP DP  RH WIND       PRES   REMARKS
TRI CITIES     MOSUNNY   83  68  60 SW14G23   30.17F
ELIZABETHTON   PTSUNNY   81  68  65 VRB7      30.17F
$$

TNZ012-013-036-069-073-074-071800-
CENTRAL EAST TENNESSEE

CITY           SKY/WX    TMP DP  RH WIND       PRES   REMARKS
KNOXVILLE      MOSUNNY   83  71  67 SW13      30.14F
OAK RIDGE      PTSUNNY   84  71  65 VRB6      30.14F
GATLINBURG       N/A     86  68  54 W5        30.14F
MORRISTOWN       N/A     82  70  65 SW9       30.16F
$$

TNZ083-085-099-071800-
SOUTHEAST TENNESSEE

CITY           SKY/WX    TMP DP  RH WIND       PRES   REMARKS
CHATTANOOGA    PTSUNNY   87  69  54 SW7       30.14S HX  91
$$

SKY/WX REPORTED AS FAIR MEANS FEW OR NO CLOUDS BELOW
12 THOUSAND FEET.



USA.gov is the U.S. government's official web portal to all federal, state and local government web resources and services.